K5KVN-2 Weather Reports


Display with metric or nautical units.
time (UTC)temp
F
wind
direction
speed
MPH
gust
MPH
rain 1hr
in
rain 24hr
in
rain mn
in
humidity
%
barometer
mb
20260507234001 65 219 3.0 10.0 0.00 0.00 0.00 47 1014.8
20260507233002 66 230 2.0 5.0 0.00 0.00 0.00 48 1014.6
20260507232001 66 194 5.0 9.0 0.00 0.00 0.00 48 1014.7
20260507231439 66 198 4.0 8.0 0.00 0.00 0.00 48 1014.9
20260507230442 66 216 3.0 8.0 0.00 0.00 0.00 47 1014.9
20260507225001 66 294 3.0 7.0 0.00 0.00 0.00 48 1015.0
20260507224002 66 170 4.0 10.0 0.00 0.00 0.00 47 1015.0
20260507223001 67 193 4.0 7.0 0.00 0.00 0.00 46 1015.2
20260507222001 66 184 2.0 9.0 0.00 0.00 0.00 47 1015.2
20260507221001 67 207 5.0 10.0 0.00 0.00 0.00 45 1015.4
20260507220001 67 223 4.0 11.0 0.00 0.00 0.00 46 1015.3
20260507214959 66 275 2.0 7.0 0.00 0.00 0.00 45 1015.5
20260507214000 67 211 5.0 12.0 0.00 0.00 0.00 44 1015.4
20260507213443 68 197 6.0 13.0 0.00 0.00 0.00 46 1015.4
20260507212000 67 167 6.0 10.0 0.00 0.00 0.00 47 1015.4
20260507210953 67 179 4.0 9.0 0.00 0.00 0.00 46 1015.7
20260507205951 66 192 4.0 10.0 0.00 0.00 0.00 45 1015.7
20260507204953 67 193 4.0 9.0 0.00 0.00 0.00 45 1016.0
20260507203952 66 209 4.0 12.0 0.00 0.00 0.00 44 1016.1
20260507202952 67 151 5.0 10.0 0.00 0.00 0.00 42 1016.3
20260507201951 67 252 4.0 9.0 0.00 0.00 0.00 42 1016.4
20260507201436 67 328 4.0 10.0 0.00 0.00 0.00 48 1016.3
20260507195954 66 226 7.0 13.0 0.00 0.00 0.00 44 1016.4
20260507194953 67 179 5.0 16.0 0.00 0.00 0.00 49 1016.7
20260507193947 66 236 3.0 9.0 0.00 0.00 0.00 45 1017.0
20260507192947 66 168 4.0 10.0 0.00 0.00 0.00 44 1017.0
20260507191946 66 155 4.0 10.0 0.00 0.00 0.00 46 1017.2
20260507190945 66 209 4.0 9.0 0.00 0.00 0.00 49 1017.2
20260507190440 65 277 5.0 11.0 0.00 0.00 0.00 45 1017.2
20260507184945 65 225 6.0 11.0 0.00 0.00 0.00 50 1017.3
20260507183947 65 286 4.0 10.0 0.00 0.00 0.00 46 1017.4
20260507182945 65 314 4.0 11.0 0.00 0.00 0.00 44 1017.4
20260507181947 65 189 5.0 9.0 0.00 0.00 0.00 48 1017.5
20260507180945 65 315 4.0 11.0 0.00 0.00 0.00 43 1017.7
20260507175946 64 189 2.0 10.0 0.00 0.00 0.00 46 1018.0
20260507174945 64 317 3.0 8.0 0.00 0.00 0.00 42 1018.2
20260507173947 63 334 4.0 8.0 0.00 0.00 0.00 43 1018.4
20260507172946 63 273 3.0 7.0 0.00 0.00 0.00 47 1018.6
20260507171946 64 181 3.0 9.0 0.00 0.00 0.00 47 1018.4
20260507170946 63 307 4.0 10.0 0.00 0.00 0.00 46 1018.6
20260507165945 63 312 3.0 8.0 0.00 0.00 0.00 50 1018.7
20260507164942 62 331 3.0 9.0 0.00 0.00 0.00 45 1019.0
20260507163945 62 285 4.0 10.0 0.00 0.00 0.00 48 1019.1
20260507162941 62 339 5.0 10.0 0.00 0.00 0.00 51 1019.1
20260507161937 61 12 4.0 10.0 0.00 0.00 0.00 46 1019.2
20260507160939 60 244 3.0 7.0 0.00 0.00 0.00 52 1019.2
20260507160414 60 182 5.0 11.0 0.00 0.00 0.00 51 1019.4
20260507154931 59 150 2.0 6.0 0.00 0.00 0.00 51 1019.4
20260507153932 59 228 3.0 8.0 0.00 0.00 0.00 50 1019.4
20260507152931 59 355 3.0 9.0 0.00 0.00 0.00 51 1019.4
20260507151933 58 175 3.0 7.0 0.00 0.00 0.00 54 1019.4
20260507150935 57 164 2.0 5.0 0.00 0.00 0.00 59 1019.6
20260507145930 56 147 2.0 6.0 0.00 0.00 0.00 57 1019.5
20260507145413 56 175 2.0 6.0 0.00 0.00 0.00 62 1019.5
20260507143931 55 169 2.0 6.0 0.00 0.00 0.00 65 1019.4
20260507142931 54 203 2.0 5.0 0.00 0.00 0.00 69 1019.4
20260507141929 53 141 0.0 2.0 0.00 0.00 0.00 72 1019.3
20260507141408 52 146 1.0 3.0 0.00 0.00 0.00 76 1019.3
20260507135928 51 152 1.0 3.0 0.00 0.00 0.00 84 1019.3
20260507134924 49 170 1.0 2.0 0.00 0.00 0.00 87 1019.5
20260507133924 48 143 0.0 0.0 0.00 0.00 0.00 90 1019.5
20260507132924 47 133 0.0 1.0 0.00 0.00 0.00 92 1019.6
20260507131924 46 135 0.0 1.0 0.00 0.00 0.00 92 1019.6
20260507130922 46 135 0.0 2.0 0.00 0.00 0.00 93 1019.5
20260507130407 45 73 0.0 2.0 0.00 0.00 0.00 94 1019.4
20260507124921 44 103 0.0 1.0 0.00 0.00 0.00 94 1019.4
20260507123920 43 96 0.0 1.0 0.00 0.00 0.00 94 1019.2
20260507123412 43 350 0.0 1.0 0.00 0.00 0.00 94 1019.0
20260507121921 42 350 0.0 1.0 0.00 0.00 0.00 94 1019.1
20260507120917 41 350 0.0 1.0 0.00 0.00 0.00 95 1019.1
20260507115917 40 320 0.0 0.0 0.00 0.00 0.00 95 1019.1
20260507115356 39 320 0.0 0.0 0.00 0.00 0.00 94 1019.0
20260507113917 39 320 0.0 0.0 0.00 0.00 0.00 93 1018.9
20260507113400 39 320 0.0 0.0 0.00 0.00 0.00 93 1019.1
20260507111916 40 320 0.0 0.0 0.00 0.00 0.00 94 1019.1
20260507110918 40 320 0.0 1.0 0.00 0.00 0.00 94 1018.8
20260507110358 40 320 0.0 1.0 0.00 0.00 0.00 94 1018.6
20260507104917 39 320 0.0 0.0 0.00 0.00 0.00 94 1018.6
20260507103919 39 320 0.0 0.0 0.00 0.00 0.00 94 1018.7
20260507102912 39 320 0.0 0.0 0.00 0.00 0.00 93 1018.6
20260507101911 39 320 0.0 0.0 0.00 0.00 0.00 93 1018.8
20260507100910 39 320 0.0 0.0 0.00 0.00 0.00 93 1018.8
20260507095911 39 320 0.0 1.0 0.00 0.00 0.00 93 1018.9
20260507094910 39 298 0.0 0.0 0.00 0.00 0.00 93 1018.8
20260507093912 40 298 0.0 0.0 0.00 0.00 0.00 93 1018.9
20260507091913 40 298 0.0 0.0 0.00 0.00 0.00 93 1018.7
20260507090911 40 298 0.0 1.0 0.00 0.00 0.00 92 1018.7
20260507085906 40 298 0.0 1.0 0.00 0.00 0.00 92 1018.7
20260507084905 40 298 0.0 2.0 0.00 0.00 0.00 92 1018.7
20260507084357 40 298 0.0 1.0 0.00 0.00 0.00 92 1018.6
20260507082901 40 298 0.0 0.0 0.00 0.00 0.00 92 1018.4
20260507081904 40 298 1.0 3.0 0.00 0.00 0.00 92 1018.4
20260507081350 41 293 0.0 3.0 0.00 0.00 0.00 91 1018.7
20260507075904 41 309 0.0 0.0 0.00 0.00 0.00 90 1018.4
20260507074903 42 310 0.0 1.0 0.00 0.00 0.00 91 1018.3
20260507073906 42 321 0.0 2.0 0.00 0.00 0.00 90 1018.3
20260507072900 42 321 0.0 0.0 0.00 0.00 0.00 90 1018.2
20260507071900 42 321 1.0 2.0 0.00 0.00 0.00 89 1018.4
20260507070857 42 325 0.0 0.0 0.00 0.00 0.00 89 1018.6
20260507065856 43 325 0.0 0.0 0.00 0.00 0.00 88 1018.8
20260507062855 46 293 0.0 0.0 0.00 0.00 0.00 82 1018.6
20260507060854 47 318 1.0 4.0 0.00 0.00 0.00 78 1018.7
20260507055848 47 331 4.0 5.0 0.00 0.00 0.00 78 1018.7
20260507054848 47 333 4.0 5.0 0.00 0.00 0.00 78 1018.7
20260507053848 47 355 3.0 5.0 0.00 0.00 0.00 79 1018.4
20260507052847 47 327 2.0 4.0 0.00 0.00 0.00 79 1018.6
20260507052323 48 325 2.0 3.0 0.00 0.00 0.00 78 1018.6
20260507050848 48 341 1.0 3.0 0.00 0.00 0.00 78 1018.3
20260507045845 48 331 1.0 3.0 0.00 0.00 0.00 79 1018.4
20260507044845 48 338 1.0 2.0 0.00 0.00 0.00 79 1018.3
20260507043844 48 318 1.0 3.0 0.00 0.00 0.00 79 1018.2
20260507043314 48 333 2.0 3.0 0.00 0.00 0.00 78 1018.0
20260507041849 49 329 1.0 3.0 0.00 0.00 0.00 78 1018.1
20260507040842 49 323 2.0 3.0 0.00 0.00 0.00 79 1018.1
20260507040341 49 333 1.0 3.0 0.00 0.00 0.00 79 1018.0
20260507034838 49 329 0.0 2.0 0.00 0.00 0.00 80 1017.9
20260507032836 50 335 2.0 3.0 0.00 0.00 0.00 79 1017.9
20260507031836 50 327 2.0 3.0 0.00 0.00 0.00 79 1017.8
20260507030838 50 327 2.0 3.0 0.00 0.00 0.00 79 1017.6
20260507025835 49 318 1.0 4.0 0.00 0.00 0.00 84 1017.5
20260507025338 49 321 0.0 0.0 0.00 0.00 0.00 85 1017.4
20260507023838 50 321 0.0 3.0 0.00 0.00 0.00 83 1017.3
20260507022834 50 317 0.0 2.0 0.00 0.00 0.00 83 1017.3
20260507021835 51 323 1.0 4.0 0.00 0.00 0.00 83 1017.2
20260507020835 51 313 3.0 4.0 0.00 0.00 0.00 82 1017.1
20260507015835 50 320 1.0 4.0 0.00 0.00 0.00 82 1017.0
20260507014836 51 293 0.0 2.0 0.00 0.00 0.00 81 1017.0
20260507013833 52 293 0.0 0.0 0.00 0.00 0.00 80 1016.9
20260507012836 52 293 0.0 1.0 0.00 0.00 0.00 79 1016.8
20260507011835 53 293 0.0 2.0 0.00 0.00 0.00 78 1016.5
20260507010835 54 293 0.0 2.0 0.00 0.00 0.00 75 1016.6
20260507005836 56 281 0.0 0.0 0.00 0.00 0.00 71 1016.6
20260507004835 57 281 0.0 0.0 0.00 0.02 0.00 71 1016.5
20260507003836 57 219 0.0 0.0 0.00 0.02 0.00 67 1016.4
20260507002832 57 219 0.0 0.0 0.00 0.02 0.00 65 1016.5
20260507001832 57 219 0.0 2.0 0.00 0.02 0.00 64 1016.5
20260507000833 57 48 0.0 3.0 0.00 0.02 0.00 64 1016.3
20260506235831 58 55 1.0 4.0 0.00 0.02 0.00 66 1016.2